• In Belarus
  • List of Countries
  • For 7 days
  • Water Temperature
  • Satellite Maps
  • Weather Map
  • Weather Widgets
  • user-avatar
    Login

    Hourly Weather San Juan

    Today, 26 May, Saturday

    Time Temperature Precipitation Wind Pressure Humidity
    00:00 +26°C° 0.1 mm 5 mps 762 mmHg 86%
    01:00 +26°C° 0.1 mm 5 mps 761 mmHg 86%
    02:00 +26°C° 0 mm 4 mps 761 mmHg 87%
    03:00 +26°C° 0.1 mm 4 mps 761 mmHg 87%
    04:00 +26°C° 0.1 mm 4 mps 761 mmHg 87%
    05:00 +26°C° 0.1 mm 4 mps 761 mmHg 87%
    06:00 +27°C° 0 mm 5 mps 761 mmHg 83%
    07:00 +28°C° 0 mm 5 mps 761 mmHg 80%
    08:00 +29°C° 0 mm 5 mps 762 mmHg 74%
    09:00 +30°C° 0 mm 5 mps 762 mmHg 70%
    10:00 +32°C° 0 mm 5 mps 762 mmHg 66%
    11:00 +32°C° 0 mm 6 mps 762 mmHg 62%
    12:00 +33°C° 0 mm 6 mps 762 mmHg 61%
    13:00 +33°C° 0 mm 6 mps 761 mmHg 61%
    14:00 +33°C° 0 mm 6 mps 761 mmHg 60%
    15:00 +33°C° 0 mm 6 mps 761 mmHg 62%
    16:00 +32°C° 0 mm 6 mps 761 mmHg 64%
    17:00 +32°C° 0 mm 5 mps 761 mmHg 66%
    18:00 +29°C° 0 mm 5 mps 761 mmHg 71%
    19:00 +28°C° 0 mm 5 mps 761 mmHg 76%
    20:00 +27°C° 0 mm 5 mps 761 mmHg 81%
    21:00 +27°C° 0 mm 5 mps 761 mmHg 82%
    22:00 +27°C° 0 mm 5 mps 761 mmHg 84%
    23:00 +26°C° 0 mm 5 mps 761 mmHg 85%

    Tomorrow, 27 May, Sunday

    Time Temperature Precipitation Wind Pressure Humidity
    00:00 +26°C° 0 mm 5 mps 761 mmHg 86%
    01:00 +26°C° 0 mm 5 mps 761 mmHg 87%
    02:00 +26°C° 0 mm 5 mps 761 mmHg 87%
    03:00 +26°C° 0 mm 5 mps 761 mmHg 88%
    04:00 +26°C° 0 mm 5 mps 761 mmHg 88%
    05:00 +26°C° 0 mm 5 mps 761 mmHg 89%
    06:00 +27°C° 0.1 mm 5 mps 761 mmHg 85%
    07:00 +28°C° 0.1 mm 5 mps 761 mmHg 81%
    08:00 +29°C° 0.1 mm 5 mps 762 mmHg 77%
    09:00 +30°C° 0.1 mm 6 mps 762 mmHg 74%
    10:00 +32°C° 0.1 mm 6 mps 762 mmHg 70%
    11:00 +33°C° 0.1 mm 6 mps 762 mmHg 66%
    12:00 +33°C° 0.1 mm 6 mps 762 mmHg 65%
    13:00 +33°C° 0.1 mm 6 mps 762 mmHg 64%
    14:00 +33°C° 0.1 mm 6 mps 762 mmHg 63%
    15:00 +33°C° 0.1 mm 6 mps 761 mmHg 67%
    16:00 +32°C° 0.1 mm 6 mps 761 mmHg 70%
    17:00 +30°C° 0.1 mm 6 mps 761 mmHg 73%
    18:00 +29°C° 0.1 mm 6 mps 761 mmHg 77%
    19:00 +28°C° 0.1 mm 5 mps 761 mmHg 82%
    20:00 +28°C° 0.1 mm 5 mps 762 mmHg 86%
    21:00 +27°C° 0 mm 5 mps 762 mmHg 87%
    22:00 +27°C° 0 mm 5 mps 762 mmHg 87%
    23:00 +27°C° 0 mm 5 mps 763 mmHg 88%

    Day after tomorrow, 28 May, Monday

    Time Temperature Precipitation Wind Pressure Humidity
    00:00 +27°C° 0.1 mm 5 mps 762 mmHg 88%
    01:00 +27°C° 0.1 mm 5 mps 762 mmHg 88%
    02:00 +27°C° 0.1 mm 5 mps 762 mmHg 89%
    03:00 +27°C° 0 mm 5 mps 762 mmHg 89%
    04:00 +27°C° 0 mm 5 mps 761 mmHg 89%
    05:00 +27°C° 0 mm 5 mps 761 mmHg 89%
    06:00 +27°C° 0.1 mm 5 mps 762 mmHg 85%
    07:00 +28°C° 0.1 mm 6 mps 762 mmHg 82%
    08:00 +29°C° 0.1 mm 6 mps 763 mmHg 79%
    09:00 +29°C° 0.2 mm 6 mps 763 mmHg 75%
    10:00 +30°C° 0.2 mm 6 mps 763 mmHg 71%
    11:00 +32°C° 0.2 mm 6 mps 763 mmHg 67%
    12:00 +32°C° 0.2 mm 6 mps 763 mmHg 66%
    13:00 +32°C° 0.2 mm 7 mps 763 mmHg 65%
    14:00 +33°C° 0.2 mm 7 mps 762 mmHg 65%
    15:00 +32°C° 0.1 mm 7 mps 762 mmHg 66%
    16:00 +32°C° 0.1 mm 6 mps 762 mmHg 68%
    17:00 +30°C° 0.1 mm 6 mps 761 mmHg 69%
    18:00 +29°C° 0 mm 6 mps 762 mmHg 73%
    19:00 +28°C° 0 mm 6 mps 762 mmHg 78%
    20:00 +27°C° 0 mm 6 mps 762 mmHg 82%
    21:00 +27°C° 0 mm 6 mps 762 mmHg 83%
    22:00 +27°C° 0 mm 6 mps 763 mmHg 84%
    23:00 +27°C° 0 mm 5 mps 763 mmHg 86%

    29 May, Tuesday

    Time Temperature Precipitation Wind Pressure Humidity
    00:00 +27°C° 0.1 mm 5 mps 763 mmHg 86%
    01:00 +26°C° 0.1 mm 5 mps 762 mmHg 86%
    02:00 +26°C° 0.1 mm 5 mps 762 mmHg 86%
    03:00 +26°C° 0.2 mm 5 mps 762 mmHg 86%
    04:00 +26°C° 0.2 mm 5 mps 762 mmHg 86%
    05:00 +26°C° 0.2 mm 5 mps 762 mmHg 86%
    06:00 +27°C° 0.1 mm 5 mps 762 mmHg 83%
    07:00 +28°C° 0.1 mm 5 mps 762 mmHg 79%
    08:00 +29°C° 0.1 mm 6 mps 763 mmHg 75%
    09:00 +30°C° 0 mm 6 mps 763 mmHg 70%
    10:00 +32°C° 0 mm 6 mps 763 mmHg 65%
    11:00 +33°C° 0 mm 6 mps 763 mmHg 61%
    12:00 +33°C° 0 mm 6 mps 763 mmHg 60%
    13:00 +33°C° 0 mm 7 mps 762 mmHg 60%
    14:00 +33°C° 0 mm 7 mps 762 mmHg 60%
    15:00 +33°C° 0 mm 7 mps 762 mmHg 62%
    16:00 +32°C° 0 mm 6 mps 761 mmHg 64%
    17:00 +30°C° 0 mm 6 mps 761 mmHg 66%
    18:00 +29°C° 0 mm 6 mps 761 mmHg 71%
    19:00 +28°C° 0 mm 6 mps 761 mmHg 75%
    20:00 +27°C° 0 mm 5 mps 762 mmHg 80%
    21:00 +27°C° 0 mm 5 mps 762 mmHg 81%
    22:00 +27°C° 0 mm 5 mps 762 mmHg 83%
    23:00 +27°C° 0 mm 5 mps 763 mmHg 84%

    30 May, Wednesday

    Time Temperature Precipitation Wind Pressure Humidity
    00:00 +27°C° 0.1 mm 5 mps 762 mmHg 85%
    01:00 +26°C° 0.1 mm 5 mps 762 mmHg 86%
    02:00 +26°C° 0.1 mm 4 mps 762 mmHg 86%
    03:00 +26°C° 0.1 mm 4 mps 762 mmHg 86%
    04:00 +26°C° 0.1 mm 5 mps 762 mmHg 86%
    05:00 +26°C° 0.1 mm 5 mps 762 mmHg 86%
    06:00 +27°C° 0 mm 5 mps 762 mmHg 82%
    07:00 +28°C° 0 mm 5 mps 762 mmHg 79%
    08:00 +29°C° 0 mm 5 mps 763 mmHg 75%
    09:00 +30°C° 0 mm 5 mps 763 mmHg 70%
    10:00 +32°C° 0 mm 5 mps 763 mmHg 66%
    11:00 +33°C° 0 mm 5 mps 763 mmHg 62%
    12:00 +33°C° 0.2 mm 5 mps 762 mmHg 63%
    13:00 +33°C° 0.2 mm 6 mps 762 mmHg 64%
    14:00 +33°C° 0.2 mm 6 mps 762 mmHg 64%
    15:00 +32°C° 0 mm 6 mps 761 mmHg 65%
    16:00 +32°C° 0 mm 6 mps 761 mmHg 67%
    17:00 +30°C° 0 mm 6 mps 760 mmHg 68%
    18:00 +29°C° 0 mm 5 mps 761 mmHg 73%
    19:00 +28°C° 0 mm 5 mps 761 mmHg 78%
    20:00 +27°C° 0 mm 5 mps 761 mmHg 83%
    21:00 +27°C° 0 mm 5 mps 761 mmHg 84%
    22:00 +27°C° 0 mm 5 mps 762 mmHg 85%
    23:00 +27°C° 0 mm 5 mps 762 mmHg 87%

    31 May, Thursday

    Time Temperature Precipitation Wind Pressure Humidity
    00:00 +27°C° 0.1 mm 4 mps 761 mmHg 87%
    01:00 +26°C° 0.1 mm 4 mps 761 mmHg 87%
    02:00 +26°C° 0.1 mm 4 mps 761 mmHg 88%
    03:00 +26°C° 0 mm 4 mps 761 mmHg 88%
    04:00 +26°C° 0 mm 4 mps 761 mmHg 88%
    05:00 +26°C° 0 mm 3 mps 761 mmHg 88%
    06:00 +27°C° 0 mm 3 mps 761 mmHg 84%
    07:00 +28°C° 0 mm 3 mps 762 mmHg 79%
    08:00 +29°C° 0 mm 3 mps 762 mmHg 75%
    09:00 +30°C° 0 mm 4 mps 762 mmHg 70%
    10:00 +32°C° 0 mm 4 mps 762 mmHg 65%
    11:00 +33°C° 0 mm 4 mps 762 mmHg 61%
    12:00 +33°C° 0 mm 5 mps 762 mmHg 60%
    13:00 +33°C° 0 mm 5 mps 761 mmHg 59%
    14:00 +34°C° 0 mm 5 mps 761 mmHg 58%
    15:00 +33°C° 0.1 mm 5 mps 761 mmHg 61%
    16:00 +32°C° 0.1 mm 5 mps 760 mmHg 64%
    17:00 +32°C° 0.1 mm 5 mps 760 mmHg 67%
    18:00 +30°C° 0 mm 5 mps 761 mmHg 73%
    19:00 +28°C° 0 mm 4 mps 761 mmHg 79%
    20:00 +27°C° 0 mm 4 mps 761 mmHg 84%
    21:00 +27°C° 0 mm 4 mps 761 mmHg 85%
    22:00 +27°C° 0 mm 4 mps 761 mmHg 86%
    23:00 +27°C° 0 mm 4 mps 761 mmHg 86%
    Show more